FW0864 Weather Reports


Display with metric or nautical units.
time (UTC)temp
F
wind
direction
speed
MPH
gust
MPH
rain 1hr
in
rain 24hr
in
rain mn
in
humidity
%
barometer
mb
20260904074007 67 262 5.0 9.0 0.00 0.00 0.00 76 1008.1
20260904073511 67 265 4.0 9.0 0.00 0.00 0.00 76 1008.0
20260904073006 67 274 3.0 9.0 0.00 0.00 0.00 76 1008.1
20260904072505 67 258 3.0 9.0 0.00 0.00 0.00 76 1008.1
20260904072004 67 301 4.0 10.0 0.00 0.00 0.00 76 1008.0
20260904071503 67 262 4.0 10.0 0.00 0.00 0.00 75 1008.0
20260904071003 67 268 3.0 9.0 0.00 0.00 0.00 75 1008.1
20260904070503 67 326 4.0 10.0 0.00 0.00 0.00 75 1008.1
20260904070004 67 318 3.0 9.0 0.00 0.00 0.00 75 1008.1
20260904065503 67 259 3.0 8.0 0.00 0.00 0.00 74 1008.1
20260904065002 68 283 4.0 11.0 0.00 0.00 0.00 74 1008.1
20260904064502 68 305 4.0 11.0 0.00 0.00 0.00 74 1008.1
20260904064002 68 321 3.0 9.0 0.00 0.00 0.00 74 1008.1
20260904063502 68 317 4.0 12.0 0.00 0.00 0.00 74 1008.1
20260904063001 68 296 4.0 12.0 0.00 0.00 0.00 74 1008.0
20260904062502 68 320 3.0 10.0 0.00 0.00 0.00 73 1008.0
20260904062001 68 307 3.0 9.0 0.00 0.00 0.00 73 1007.9
20260904061600 68 309 3.0 9.0 0.00 0.00 0.00 73 1008.0
20260904061100 68 338 5.0 10.0 0.00 0.00 0.00 73 1007.9
20260904060600 68 280 4.0 10.0 0.00 0.00 0.00 73 1008.0
20260904060118 68 250 3.0 9.0 0.00 0.00 0.00 72 1008.0
20260904055559 68 303 2.0 10.0 0.00 0.00 0.00 72 1007.9
20260904055059 69 295 4.0 12.0 0.00 0.00 0.00 71 1007.9
20260904054559 69 287 4.0 12.0 0.00 0.00 0.00 71 1007.9
20260904054100 69 303 4.0 10.0 0.00 0.00 0.00 71 1008.0
20260904053559 69 314 3.0 11.0 0.00 0.00 0.00 70 1008.0
20260904053059 69 304 6.0 11.0 0.00 0.00 0.00 70 1007.9
20260904052559 69 278 4.0 10.0 0.00 0.00 0.00 70 1008.0
20260904052059 70 324 5.0 13.0 0.00 0.00 0.00 70 1008.0
20260904051558 70 245 5.0 10.0 0.00 0.00 0.00 69 1008.1
20260904051058 70 342 4.0 10.0 0.00 0.00 0.00 69 1008.1
20260904050558 70 320 4.0 11.0 0.00 0.00 0.00 68 1008.2
20260904050059 70 339 5.0 11.0 0.00 0.00 0.00 68 1008.1
20260904045558 71 342 4.0 11.0 0.00 0.00 0.00 68 1008.1
20260904045100 71 297 5.0 11.0 0.00 0.00 0.00 67 1008.1
20260904044559 71 336 4.0 10.0 0.00 0.00 0.00 66 1008.0
20260904044058 71 312 5.0 10.0 0.00 0.00 0.00 66 1007.9
20260904043604 72 291 3.0 8.0 0.00 0.00 0.00 65 1007.9
20260904043105 72 331 3.0 14.0 0.00 0.00 0.00 64 1007.9
20260904042559 72 345 4.0 14.0 0.00 0.00 0.00 64 1007.8
20260904042102 72 343 6.0 12.0 0.00 0.00 0.00 63 1007.7
20260904041600 73 354 6.0 13.0 0.00 0.00 0.00 62 1007.6
20260904041057 73 332 8.0 13.0 0.00 0.00 0.00 61 1007.5
20260904040557 74 312 6.0 13.0 0.00 0.00 0.00 61 1007.5
20260904040057 74 341 5.0 15.0 0.00 0.00 0.00 60 1007.5
20260904035557 74 331 8.0 15.0 0.00 0.00 0.00 59 1007.5
20260904035100 75 317 4.0 10.0 0.00 0.00 0.00 58 1007.3
20260904034556 75 335 4.0 10.0 0.00 0.00 0.00 57 1007.2
20260904034056 75 321 4.0 9.0 0.00 0.00 0.00 56 1007.1
20260904033555 75 299 4.0 9.0 0.00 0.00 0.00 56 1007.0
20260904033056 75 354 3.0 9.0 0.00 0.00 0.00 54 1007.0
20260904032555 75 304 2.0 8.0 0.00 0.00 0.00 51 1006.9
20260904032055 75 325 3.0 8.0 0.00 0.00 0.00 51 1006.9
20260904031555 75 251 4.0 9.0 0.00 0.00 0.00 50 1006.8
20260904031055 76 240 5.0 11.0 0.00 0.00 0.00 48 1006.6
20260904030555 77 276 4.0 11.0 0.00 0.00 0.00 46 1006.6
20260904030055 79 248 6.0 11.0 0.00 0.00 0.00 44 1006.6
20260904025558 80 249 1.0 5.0 0.00 0.00 0.00 40 1006.6
20260904025054 80 316 2.0 6.0 0.00 0.00 0.00 39 1006.5
20260904024604 80 330 2.0 6.0 0.00 0.00 0.00 39 1006.5
20260904024055 80 341 2.0 5.0 0.00 0.00 0.00 38 1006.5
20260904023558 80 330 1.0 3.0 0.00 0.00 0.00 38 1006.5
20260904023053 81 344 1.0 3.0 0.00 0.00 0.00 37 1006.5
20260904022557 81 297 1.0 3.0 0.00 0.00 0.00 36 1006.5
20260904022053 82 322 1.0 3.0 0.00 0.00 0.00 36 1006.5
20260904021556 82 333 0.0 3.0 0.00 0.00 0.00 35 1006.5
20260904021053 82 16 0.0 3.0 0.00 0.00 0.00 35 1006.5
20260904020553 83 51 1.0 5.0 0.00 0.00 0.00 34 1006.5
20260904020052 83 337 2.0 6.0 0.00 0.00 0.00 34 1006.6
20260904015551 83 311 2.0 5.0 0.00 0.00 0.00 34 1006.6
20260904015051 83 4 3.0 5.0 0.00 0.00 0.00 33 1006.6
20260904014554 84 331 2.0 6.0 0.00 0.00 0.00 33 1006.7
20260904014050 83 33 1.0 6.0 0.00 0.00 0.00 33 1006.7
20260904013553 84 338 3.0 6.0 0.00 0.00 0.00 32 1006.7
20260904013111 84 340 3.0 6.0 0.00 0.00 0.00 32 1006.7
20260904012554 84 30 2.0 6.0 0.00 0.00 0.00 32 1006.7
20260904012050 84 299 2.0 8.0 0.00 0.00 0.00 31 1006.7
20260904011550 84 299 3.0 8.0 0.00 0.00 0.00 32 1006.7
20260904011053 84 340 3.0 8.0 0.00 0.00 0.00 32 1006.7
20260904010549 84 299 3.0 6.0 0.00 0.00 0.00 32 1006.7
20260904010050 83 307 3.0 7.0 0.00 0.00 0.00 32 1006.8
20260904005550 83 302 2.0 6.0 0.00 0.00 0.00 32 1006.8
20260904005049 84 289 2.0 6.0 0.00 0.00 0.00 31 1006.8
20260904004549 84 331 3.0 9.0 0.00 0.00 0.00 30 1006.8
20260904004049 85 278 3.0 4.0 0.00 0.00 0.00 30 1006.8
20260904003548 85 314 2.0 6.0 0.00 0.00 0.00 29 1006.8
20260904003048 85 276 3.0 10.0 0.00 0.00 0.00 28 1006.9
20260904002548 86 256 5.0 10.0 0.00 0.00 0.00 27 1006.9
20260904002047 86 341 2.0 8.0 0.00 0.00 0.00 28 1006.9
20260904001601 85 283 5.0 8.0 0.00 0.00 0.00 28 1007.0
20260904001045 85 354 4.0 8.0 0.00 0.00 0.00 27 1007.0
20260904000550 86 321 2.0 8.0 0.00 0.00 0.00 27 1007.1
20260904000045 86 326 3.0 8.0 0.00 0.00 0.00 27 1007.1
20260903235546 86 305 4.0 10.0 0.00 0.00 0.00 26 1007.2
20260903235043 86 318 3.0 10.0 0.00 0.00 0.00 26 1007.3
20260903234543 86 337 3.0 8.0 0.00 0.00 0.00 25 1007.3
20260903234043 86 331 2.0 8.0 0.00 0.00 0.00 25 1007.4
20260903233542 86 323 2.0 6.0 0.00 0.00 0.00 26 1007.4
20260903233044 85 326 2.0 9.0 0.00 0.00 0.00 27 1007.5
20260903232539 85 325 4.0 11.0 0.00 0.00 0.00 27 1007.5
20260903232039 85 317 5.0 10.0 0.00 0.00 0.00 27 1007.5
20260903231541 86 299 4.0 8.0 0.00 0.00 0.00 27 1007.7
20260903231037 86 253 3.0 8.0 0.00 0.00 0.00 28 1007.7
20260903230539 85 301 1.0 9.0 0.00 0.00 0.00 27 1007.8
20260903230037 85 260 4.0 10.0 0.00 0.00 0.00 28 1007.9
20260903225534 85 277 3.0 11.0 0.00 0.00 0.00 29 1007.9
20260903225033 84 197 2.0 13.0 0.00 0.00 0.00 30 1008.0
20260903224539 84 253 7.0 13.0 0.00 0.00 0.00 30 1008.1
20260903224034 84 339 1.0 11.0 0.00 0.00 0.00 30 1008.1
20260903223536 84 314 6.0 14.0 0.00 0.00 0.00 31 1008.3
20260903223031 85 300 7.0 14.0 0.00 0.00 0.00 31 1008.2
20260903222531 85 269 6.0 12.0 0.00 0.00 0.00 31 1008.3
20260903222034 84 258 2.0 9.0 0.00 0.00 0.00 31 1008.4
20260903221530 84 224 6.0 9.0 0.00 0.00 0.00 32 1008.4
20260903221028 85 261 3.0 8.0 0.00 0.00 0.00 31 1008.5
20260903220531 85 228 5.0 11.0 0.00 0.00 0.00 31 1008.6
20260903220027 84 253 6.0 11.0 0.00 0.00 0.00 31 1008.6
20260903215526 84 210 1.0 11.0 0.00 0.00 0.00 35 1008.7
20260903215026 84 31 3.0 12.0 0.00 0.00 0.00 35 1008.8
20260903214533 84 266 2.0 9.0 0.00 0.00 0.00 35 1008.8
20260903214022 83 237 4.0 12.0 0.00 0.00 0.00 36 1008.8
20260903213522 82 264 7.0 12.0 0.00 0.00 0.00 37 1008.8
20260903213034 82 317 6.0 11.0 0.00 0.00 0.00 37 1008.9
20260903212527 82 177 0.0 13.0 0.00 0.00 0.00 38 1009.0
20260903212020 82 310 6.0 13.0 0.00 0.00 0.00 39 1008.9
20260903211520 82 236 3.0 9.0 0.00 0.00 0.00 39 1009.0
20260903211018 82 286 1.0 12.0 0.00 0.00 0.00 40 1009.1
20260903210518 82 243 6.0 12.0 0.00 0.00 0.00 40 1009.2
20260903210018 83 209 7.0 11.0 0.00 0.00 0.00 40 1009.2
20260903205520 83 238 3.0 9.0 0.00 0.00 0.00 40 1009.2
20260903205020 82 62 2.0 9.0 0.00 0.00 0.00 42 1009.2
20260903204515 82 313 1.0 8.0 0.00 0.00 0.00 43 1009.3
20260903204014 81 215 5.0 8.0 0.00 0.00 0.00 43 1009.3
20260903203513 81 270 5.0 10.0 0.00 0.00 0.00 43 1009.4
20260903203011 80 267 3.0 10.0 0.00 0.00 0.00 45 1009.4
20260903202511 80 319 4.0 8.0 0.00 0.00 0.00 44 1009.4
20260903202009 79 240 2.0 10.0 0.00 0.00 0.00 45 1009.6
20260903201513 79 224 6.0 9.0 0.00 0.00 0.00 45 1009.7
20260903201008 79 338 2.0 10.0 0.00 0.00 0.00 47 1009.8
20260903200508 79 262 5.0 10.0 0.00 0.00 0.00 46 1009.8
20260903200008 79 74 1.0 9.0 0.00 0.00 0.00 46 1009.9
20260903195510 80 247 6.0 9.0 0.00 0.00 0.00 45 1010.0
20260903195010 79 4 1.0 7.0 0.00 0.00 0.00 47 1010.0
20260903194505 79 147 4.0 10.0 0.00 0.00 0.00 47 1010.1
20260903194006 78 282 5.0 10.0 0.00 0.00 0.00 48 1010.2
20260903193503 77 262 2.0 10.0 0.00 0.00 0.00 50 1010.3
20260903193002 77 304 4.0 10.0 0.00 0.00 0.00 49 1010.4
20260903192502 77 285 4.0 11.0 0.00 0.00 0.00 49 1010.4
20260903192059 77 75 3.0 11.0 0.00 0.00 0.00 49 1010.5
20260903191559 76 269 5.0 9.0 0.00 0.00 0.00 49 1010.6
20260903191058 76 12 2.0 9.0 0.00 0.00 0.00 50 1010.6
20260903190557 76 321 3.0 9.0 0.00 0.00 0.00 50 1010.7
20260903190055 76 276 3.0 10.0 0.00 0.00 0.00 49 1010.8
20260903185556 75 252 2.0 11.0 0.00 0.00 0.00 50 1010.9
20260903185052 75 258 6.0 11.0 0.00 0.00 0.00 51 1011.0
20260903184556 75 223 3.0 10.0 0.00 0.00 0.00 51 1011.1
20260903184051 75 251 2.0 8.0 0.00 0.00 0.00 51 1011.1
20260903183551 75 241 5.0 8.0 0.00 0.00 0.00 52 1011.1
20260903183048 74 264 5.0 10.0 0.00 0.00 0.00 52 1011.2
20260903182547 74 307 4.0 10.0 0.00 0.00 0.00 54 1011.2
20260903182047 74 318 6.0 10.0 0.00 0.00 0.00 53 1011.3
20260903181544 74 274 2.0 8.0 0.00 0.00 0.00 54 1011.2
20260903181042 74 310 3.0 8.0 0.00 0.00 0.00 54 1011.3
20260903180541 73 58 2.0 7.0 0.00 0.00 0.00 57 1011.2
20260903180040 73 259 3.0 8.0 0.00 0.00 0.00 56 1011.4
20260903175538 73 281 3.0 10.0 0.00 0.00 0.00 56 1011.4
20260903175037 73 257 6.0 10.0 0.00 0.00 0.00 56 1011.4
20260903174536 73 262 1.0 7.0 0.00 0.00 0.00 58 1011.5
20260903174035 72 289 1.0 9.0 0.00 0.00 0.00 60 1011.6
20260903173534 71 339 1.0 9.0 0.00 0.00 0.00 61 1011.6
20260903173031 71 305 3.0 11.0 0.00 0.00 0.00 61 1011.6
20260903172531 70 295 3.0 12.0 0.00 0.00 0.00 62 1011.7
20260903172030 70 312 7.0 11.0 0.00 0.00 0.00 61 1011.7
20260903171539 70 279 2.0 8.0 0.00 0.00 0.00 63 1011.8
20260903171025 69 330 3.0 8.0 0.00 0.00 0.00 64 1011.9
20260903170527 69 340 3.0 10.0 0.00 0.00 0.00 64 1011.9
20260903170024 69 349 4.0 11.0 0.00 0.00 0.00 65 1011.8
20260903165522 68 345 4.0 11.0 0.00 0.00 0.00 66 1011.9
20260903165021 68 9 5.0 11.0 0.00 0.00 0.00 66 1011.9
20260903164519 68 330 4.0 12.0 0.00 0.00 0.00 67 1011.9
20260903164018 67 327 6.0 12.0 0.00 0.00 0.00 67 1011.9
20260903163517 67 327 5.0 12.0 0.00 0.00 0.00 68 1011.9
20260903163015 67 62 4.0 12.0 0.00 0.00 0.00 69 1011.9
20260903162514 67 333 5.0 12.0 0.00 0.00 0.00 69 1011.8
20260903162012 66 238 6.0 12.0 0.00 0.00 0.00 70 1011.8
20260903161515 66 276 6.0 11.0 0.00 0.00 0.00 70 1011.9
20260903161009 66 289 4.0 9.0 0.00 0.00 0.00 71 1012.0
20260903160508 66 333 4.0 10.0 0.00 0.00 0.00 71 1012.0
20260903160008 65 276 4.0 12.0 0.00 0.00 0.00 72 1012.1
20260903155508 65 286 5.0 12.0 0.00 0.00 0.00 72 1012.1
20260903155005 65 307 5.0 11.0 0.00 0.00 0.00 73 1012.2
20260903154503 64 252 6.0 13.0 0.00 0.00 0.00 73 1012.2
20260903154002 64 322 7.0 13.0 0.00 0.00 0.00 74 1012.2
20260903153604 64 331 6.0 12.0 0.00 0.00 0.00 74 1012.2
20260903153059 63 287 4.0 10.0 0.00 0.00 0.00 75 1012.3
20260903152601 63 332 2.0 11.0 0.00 0.00 0.00 76 1012.4
20260903152100 63 322 5.0 11.0 0.00 0.00 0.00 77 1012.3
20260903151557 62 326 5.0 11.0 0.00 0.00 0.00 78 1012.3
20260903151059 62 336 5.0 10.0 0.00 0.00 0.00 78 1012.3
20260903150556 62 308 4.0 11.0 0.00 0.00 0.00 79 1012.2
20260903150100 61 317 5.0 11.0 0.00 0.00 0.00 79 1012.2
20260903145556 61 312 4.0 11.0 0.00 0.00 0.00 80 1012.1
20260903145057 61 333 4.0 13.0 0.00 0.00 0.00 81 1012.2
20260903144553 60 325 6.0 13.0 0.00 0.00 0.00 81 1012.1
20260903144051 60 354 4.0 11.0 0.00 0.00 0.00 81 1012.1
20260903143548 60 359 3.0 9.0 0.00 0.00 0.00 81 1012.0
20260903143048 60 313 2.0 8.0 0.00 0.00 0.00 82 1012.0
20260903142550 60 294 3.0 7.0 0.00 0.00 0.00 82 1011.9
20260903142043 59 318 2.0 6.0 0.00 0.00 0.00 82 1012.0
20260903141543 59 345 3.0 6.0 0.00 0.00 0.00 82 1011.9
20260903141042 59 308 2.0 7.0 0.00 0.00 0.00 82 1011.9
20260903140542 59 274 3.0 7.0 0.00 0.00 0.00 82 1011.9
20260903140040 59 10 3.0 8.0 0.00 0.00 0.00 82 1011.8
20260903135542 59 327 3.0 8.0 0.00 0.00 0.00 82 1011.7
20260903135039 59 281 3.0 6.0 0.00 0.00 0.00 82 1011.7
20260903134538 59 295 3.0 8.0 0.00 0.00 0.00 81 1011.7
20260903134041 59 312 3.0 9.0 0.00 0.00 0.00 81 1011.6
20260903133539 59 323 4.0 9.0 0.00 0.00 0.00 81 1011.6
20260903133042 59 303 3.0 10.0 0.00 0.00 0.00 81 1011.5
20260903132537 59 319 4.0 10.0 0.00 0.00 0.00 81 1011.5
20260903132035 59 312 4.0 10.0 0.00 0.00 0.00 81 1011.5
20260903131536 59 305 4.0 10.0 0.00 0.00 0.00 81 1011.5
20260903131036 59 298 4.0 9.0 0.00 0.00 0.00 81 1011.5
20260903130534 59 315 3.0 8.0 0.00 0.00 0.00 81 1011.5
20260903130035 59 308 4.0 8.0 0.00 0.00 0.00 81 1011.6
20260903125536 60 354 3.0 8.0 0.00 0.00 0.00 80 1011.5
20260903125033 60 312 2.0 8.0 0.00 0.00 0.00 80 1011.6
20260903124534 60 252 3.0 8.0 0.00 0.00 0.00 80 1011.5
20260903124032 60 248 3.0 9.0 0.00 0.00 0.00 80 1011.5
20260903123539 60 324 3.0 10.0 0.00 0.00 0.00 80 1011.5
20260903123034 60 260 4.0 10.0 0.00 0.00 0.00 80 1011.6
20260903122532 60 315 4.0 7.0 0.00 0.00 0.00 80 1011.5
20260903122031 60 317 3.0 7.0 0.00 0.00 0.00 80 1011.4
20260903121541 60 354 3.0 10.0 0.00 0.00 0.00 79 1011.5
20260903121030 60 295 4.0 10.0 0.00 0.00 0.00 79 1011.6
20260903120532 60 323 3.0 9.0 0.00 0.00 0.00 79 1011.6
20260903120041 60 332 4.0 9.0 0.00 0.00 0.00 79 1011.7
20260903115528 60 301 4.0 10.0 0.00 0.00 0.00 79 1011.7
20260903115032 60 354 3.0 10.0 0.00 0.00 0.00 79 1011.7
20260903114528 60 306 4.0 10.0 0.00 0.00 0.00 79 1011.8
20260903114029 60 320 4.0 10.0 0.00 0.00 0.00 78 1011.7
20260903113526 61 336 3.0 9.0 0.00 0.00 0.00 78 1011.7
20260903113026 61 325 4.0 10.0 0.00 0.00 0.00 78 1011.8
20260903112525 61 318 5.0 10.0 0.00 0.00 0.00 78 1011.8
20260903112023 61 333 3.0 9.0 0.00 0.00 0.00 78 1011.8
20260903111523 61 295 4.0 9.0 0.00 0.00 0.00 78 1011.8
20260903111023 61 261 3.0 9.0 0.00 0.00 0.00 77 1011.8
20260903110523 61 338 3.0 10.0 0.00 0.00 0.00 77 1011.9
20260903110023 61 326 5.0 10.0 0.00 0.00 0.00 77 1011.8
20260903105521 61 303 5.0 9.0 0.00 0.00 0.00 77 1011.8
20260903105025 61 308 4.0 12.0 0.00 0.00 0.00 77 1011.8
20260903104519 61 335 5.0 11.0 0.00 0.00 0.00 77 1011.9
20260903104017 61 291 4.0 11.0 0.00 0.00 0.00 77 1012.0
20260903103517 62 307 4.0 17.0 0.00 0.00 0.00 76 1012.0
20260903103019 62 332 6.0 17.0 0.00 0.00 0.00 76 1012.0
20260903102516 62 289 6.0 13.0 0.00 0.00 0.00 76 1012.1
20260903102017 62 359 5.0 10.0 0.00 0.00 0.00 75 1012.1
20260903101514 62 299 4.0 10.0 0.00 0.00 0.00 75 1012.1
20260903101014 62 324 5.0 10.0 0.00 0.00 0.00 74 1012.0
20260903100513 62 349 4.0 9.0 0.00 0.00 0.00 74 1011.9
20260903100012 62 324 4.0 9.0 0.00 0.00 0.00 74 1012.0
20260903095512 62 302 3.0 10.0 0.00 0.00 0.00 73 1012.0
20260903095010 63 337 4.0 10.0 0.00 0.00 0.00 73 1012.1
20260903094509 63 289 3.0 12.0 0.00 0.00 0.00 73 1012.1
20260903094012 63 305 6.0 12.0 0.00 0.00 0.00 73 1012.0
20260903093508 63 320 6.0 10.0 0.00 0.00 0.00 73 1012.0
20260903093010 63 327 5.0 12.0 0.00 0.00 0.00 73 1012.0
20260903092510 63 327 4.0 12.0 0.00 0.00 0.00 73 1012.1
20260903092006 63 328 5.0 14.0 0.00 0.00 0.00 73 1012.1
20260903091506 63 322 5.0 14.0 0.00 0.00 0.00 73 1012.1
20260903091005 63 347 4.0 12.0 0.00 0.00 0.00 73 1012.2
20260903090504 63 335 5.0 15.0 0.00 0.00 0.00 73 1012.1
20260903090004 64 330 5.0 15.0 0.00 0.00 0.00 73 1012.2
20260903085503 64 338 4.0 11.0 0.00 0.00 0.00 73 1012.2
20260903085002 64 354 4.0 12.0 0.00 0.00 0.00 73 1012.2
20260903084502 64 354 4.0 12.0 0.00 0.00 0.00 72 1012.2
20260903084100 64 334 5.0 11.0 0.00 0.00 0.00 72 1012.2
20260903083603 64 354 4.0 12.0 0.00 0.00 0.00 71 1012.2
20260903083059 64 335 5.0 12.0 0.00 0.00 0.00 71 1012.1
20260903082558 64 326 5.0 10.0 0.00 0.00 0.00 71 1012.2
20260903082057 65 319 4.0 11.0 0.00 0.00 0.00 71 1012.2
20260903081556 65 345 3.0 10.0 0.00 0.00 0.00 70 1012.2
20260903081055 65 314 5.0 12.0 0.00 0.00 0.00 70 1012.2
20260903080555 65 335 6.0 14.0 0.00 0.00 0.00 70 1012.1
20260903080055 65 345 5.0 14.0 0.00 0.00 0.00 70 1012.2
20260903075554 65 299 5.0 11.0 0.00 0.00 0.00 69 1012.2